Time,TemperatureF,DewpointF,PressureIn,WindDirection,WindDirectionDegrees,WindSpeedMPH,WindSpeedGustMPH,Humidity,HourlyPrecipIn,Conditions,Clouds,dailyrainin,SoftwareType,DateUTC
2013-02-04 01:42:00,-999.0,-99.9,-100.00,East,95,2.0,-999.0,-999,-99.99,,,-99.99,,2013-02-04 09:42:00,
2013-02-04 01:52:00,47.0,25.0,-100.00,North,-999,-999.0,-999.0,41,-99.99,,,-99.99,,2013-02-04 09:52:00,
2013-02-04 06:53:00,-999.0,-99.9,-100.00,SW,230,1.0,-999.0,-999,-99.99,,,-99.99,,2013-02-04 14:53:00,
2013-02-04 07:04:00,-999.0,-99.9,-100.00,SW,230,1.0,-999.0,-999,-99.99,,,-99.99,,2013-02-04 15:04:00,
2013-02-04 07:13:00,-999.0,-99.9,-100.00,SW,230,1.0,-999.0,-999,-99.99,,,-99.99,,2013-02-04 15:13:00,
2013-02-04 07:24:00,-999.0,-99.9,-100.00,SW,230,1.0,-999.0,-999,-99.99,,,-99.99,,2013-02-04 15:24:00,
2013-02-04 07:52:00,50.0,24.0,-100.00,North,-999,-999.0,-999.0,35,-99.99,,,-99.99,,2013-02-04 15:52:00,
2013-02-04 08:02:00,50.0,24.0,-100.00,North,-999,-999.0,-999.0,35,-99.99,,,-99.99,,2013-02-04 16:02:00,
2013-02-04 08:11:00,50.0,24.0,-100.00,North,-999,-999.0,-999.0,35,-99.99,,,-99.99,,2013-02-04 16:11:00,
2013-02-04 08:22:00,50.0,24.0,-100.00,North,-999,-999.0,-999.0,35,-99.99,,,-99.99,,2013-02-04 16:22:00,
2013-02-04 09:42:00,-999.0,-99.9,-100.00,SSE,151,3.0,-999.0,-999,-99.99,,,-99.99,,2013-02-04 17:42:00,
2013-02-04 10:33:00,-999.0,-99.9,-100.00,SE,129,3.0,-999.0,-999,-99.99,,,-99.99,,2013-02-04 18:33:00,
2013-02-04 10:42:00,-999.0,-99.9,-100.00,SE,129,3.0,-999.0,-999,-99.99,,,-99.99,,2013-02-04 18:42:00,
2013-02-04 10:52:00,-999.0,-99.9,-100.00,SE,129,3.0,-999.0,-999,-99.99,,,-99.99,,2013-02-04 18:52:00,
2013-02-04 11:12:00,-999.0,-99.9,-100.00,SW,219,3.0,-999.0,-999,-99.99,,,-99.99,,2013-02-04 19:12:00,
2013-02-04 11:23:00,-999.0,-99.9,-100.00,SW,219,3.0,-999.0,-999,-99.99,,,-99.99,,2013-02-04 19:23:00,
2013-02-04 13:12:00,-999.0,-99.9,-100.00,SSW,213,2.0,-999.0,-999,-99.99,,,-99.99,,2013-02-04 21:12:00,
2013-02-04 13:23:00,-999.0,-99.9,-100.00,SSW,213,2.0,-999.0,-999,-99.99,,,-99.99,,2013-02-04 21:23:00,
2013-02-04 13:32:00,-999.0,-99.9,-100.00,SSW,213,2.0,-999.0,-999,-99.99,,,-99.99,,2013-02-04 21:32:00,
2013-02-04 13:43:00,-999.0,-99.9,-100.00,SSW,213,2.0,-999.0,-999,-99.99,,,-99.99,,2013-02-04 21:43:00,
2013-02-04 14:52:00,61.0,-99.9,-100.00,NE,45,1.0,-999.0,-999,-99.99,,,-99.99,,2013-02-04 22:52:00,
2013-02-04 15:21:00,58.0,25.0,-100.00,North,-999,-999.0,-999.0,27,-99.99,,,-99.99,,2013-02-04 23:21:00,
2013-02-04 16:02:00,-999.0,-99.9,-100.00,NE,50,2.0,-999.0,-999,-99.99,,,-99.99,,2013-02-05 00:02:00,
2013-02-04 16:12:00,-999.0,-99.9,-100.00,NE,50,2.0,-999.0,-999,-99.99,,,-99.99,,2013-02-05 00:12:00,
2013-02-04 16:22:00,-999.0,-99.9,-100.00,NE,50,2.0,-999.0,-999,-99.99,,,-99.99,,2013-02-05 00:22:00,
2013-02-04 16:32:00,-999.0,-99.9,-100.00,NE,50,2.0,-999.0,-999,-99.99,,,-99.99,,2013-02-05 00:32:00,
2013-02-04 17:32:00,53.0,23.0,-100.00,North,-999,-999.0,-999.0,31,-99.99,,,-99.99,,2013-02-05 01:32:00,
2013-02-04 17:42:00,53.0,23.0,-100.00,North,-999,-999.0,-999.0,31,-99.99,,,-99.99,,2013-02-05 01:42:00,
2013-02-04 17:52:00,53.0,23.0,-100.00,North,-999,-999.0,-999.0,31,-99.99,,,-99.99,,2013-02-05 01:52:00,
2013-02-04 18:01:00,53.0,23.0,-100.00,North,-999,-999.0,-999.0,31,-99.99,,,-99.99,,2013-02-05 02:01:00,
2013-02-04 18:12:00,-999.0,-99.9,-100.00,WSW,258,1.0,-999.0,-999,-99.99,,,-99.99,,2013-02-05 02:12:00,
2013-02-04 18:22:00,-999.0,-99.9,-100.00,WSW,258,1.0,-999.0,-999,-99.99,,,-99.99,,2013-02-05 02:22:00,
2013-02-04 18:32:00,-999.0,-99.9,-100.00,WSW,258,1.0,-999.0,-999,-99.99,,,-99.99,,2013-02-05 02:32:00,
2013-02-04 18:42:00,-999.0,-99.9,-100.00,WSW,258,1.0,-999.0,-999,-99.99,,,-99.99,,2013-02-05 02:42:00,
2013-02-04 21:02:00,53.0,21.0,-100.00,North,-999,-999.0,-999.0,28,-99.99,,,-99.99,,2013-02-05 05:02:00,
2013-02-04 21:12:00,-999.0,-99.9,-100.00,WSW,241,1.0,-999.0,-999,-99.99,,,-99.99,,2013-02-05 05:12:00,